Overview Statistics Trail Chart Weather Telemetry Raw packets
 

This is the latest recevied weather packets stored in our database for station/object DL2GFH-3. If no packets are shown the sender has not sent any weather packets the latest 10 day(s).

<< 5 6 7 8 9 10 11 >>
Time Temp. Humidity Pressure Rain* Wind** Luminosity Snow
1777589258 16.11° C 23% 1023.6 hPa - - - -
1777588353 16.11° C 23% 1023.9 hPa - - - -
1777587447 16.11° C 23% 1023.9 hPa - - - -
1777586542 16.67° C 23% 1023.8 hPa - - - -
1777585637 16.67° C 24% 1023.9 hPa - - - -
1777584731 16.67° C 23% 1023.8 hPa - - - -
1777583826 17.22° C 23% 1023.8 hPa - - - -
1777582920 17.22° C 23% 1023.7 hPa - - - -
1777582015 17.78° C 23% 1023.7 hPa - - - -
1777581110 18.33° C 22% 1023.7 hPa - - - -
1777579299 20.56° C 20% 1023.5 hPa - - - -
1777578393 21.67° C 20% 1023.4 hPa - - - -
1777577488 19.44° C 22% 1023.4 hPa - - - -
1777576582 18.89° C 22% 1023.3 hPa - - - -
1777575677 18.89° C 22% 1023.1 hPa - - - -
1777574772 18.33° C 23% 1023 hPa - - - -
1777573866 18.89° C 22% 1022.8 hPa - - - -
1777572961 18.89° C 22% 1022.6 hPa - - - -
1777572060 18.33° C 23% 1022.4 hPa - - - -
1777571150 18.89° C 23% 1022.3 hPa - - - -
1777570245 18.89° C 22% 1022.2 hPa - - - -
1777569339 19.44° C 22% 1022.1 hPa - - - -
1777568434 20° C 21% 1022.1 hPa - - - -
1777566623 18.89° C 22% 1022.1 hPa - - - -
1777565717 19.44° C 22% 1022 hPa - - - -

* Rain since midnight (hover to see other rain measurements)
** Current wind speed in m/s (hover to see current wind gust speed)